Hourly Data Report for August 25, 2017

QUALICUM BEACH AIRPORT
BRITISH COLUMBIA

49°20'14.000" N
124°23'38.000" W
58.20 m
1026562
71766
VOQ

Download Data

Hourly Data (August 2017)
Hourly Data Report for August 25, 2017
TIME
LST
Temp Definition
°C
Dew Point Definition
°C
Rel Hum Definition
%
Precip. Amount Definition
mm

Wind Dir Definition
10's deg

Wind Spd Definition
km/h
Visibility Definition
km
Stn Press Definition
kPa
Hmdx Definition


Wind Chill Definition


Weather Definition


00:00 14.9 9.6 71 0.0 26 7   101.12     LegendNANA
01:00 12.9 9.2 78 0.0 27 5   101.10     LegendNANA
02:00 12.5 9.2 80 0.0 26 3   101.11     LegendNANA
03:00 12.4 9.1 80 0.0 25 2   101.11     LegendNANA
04:00 12.6 8.8 78 0.0 26 2   101.12     LegendNANA
05:00 13.1 8.9 76 0.0 27 3   101.15     LegendNANA
06:00 13.6 8.9 73 0.0 24 4   101.17     LegendNANA
07:00 14.5 9.5 72 0.0 0 1   101.16     LegendNANA
08:00 16.6 9.0 61 0.0 30 6   101.16     LegendNANA
09:00 17.9 8.0 52 0.0 33 8   101.17     LegendNANA
10:00 18.4 10.3 59 0.0 36 9   101.19     LegendNANA
11:00 18.9 9.2 53 0.0 34 8   101.18     LegendNANA
12:00 19.9 6.7 42 0.0 4 7   101.18     LegendNANA
13:00 20.0 9.8 52 0.0 6 9   101.17     LegendNANA
14:00 20.9 8.9 46 0.0 11 13   101.13     LegendNANA
15:00 21.1 9.2 47 0.0 10 10   101.12     LegendNANA
16:00 22.9 8.5 40 0.0 8 6   101.11     LegendNANA
17:00 22.1 7.3 38 0.0 9 5   101.10     LegendNANA
18:00 21.4 8.4 43 0.0 9 6   101.09     LegendNANA
19:00 19.6 8.8 49 0.0 12 2   101.10     LegendNANA
20:00 17.2 9.1 59 0.0 28 2   101.13     LegendNANA
21:00 15.4 8.9 66 0.0 26 2   101.17     LegendNANA
22:00 14.2 9.3 73 0.0 26 1   101.22     LegendNANA
23:00 12.9 9.3 79 0.0 21 2   101.21     LegendNANA

Notes on Data Quality.

Legend

  • E = Estimated
  • M = Missing
  • NA = Not Available*
  • [empty] = Indicates an unobserved value
Date modified: